TimePST,TemperatureF,Dew PointF,Humidity,Sea Level PressureIn,VisibilityMPH,Wind Direction,Wind SpeedMPH,Gust SpeedMPH,PrecipitationIn,Events,Conditions,WindDirDegrees,DateUTC
12:15 AM,39.2,32.0,75,29.44,10.0,NW,12.7,16.1,N/A,,Overcast,320,2014-03-01 08:15:00
12:35 AM,39.2,32.0,75,29.45,10.0,NW,12.7,-,N/A,,Overcast,320,2014-03-01 08:35:00
12:55 AM,39.2,30.2,70,29.44,10.0,NW,10.4,-,N/A,,Overcast,320,2014-03-01 08:55:00
1:15 AM,39.2,30.2,70,29.45,10.0,NW,12.7,-,N/A,,Overcast,320,2014-03-01 09:15:00
1:55 AM,39.2,30.2,70,29.46,9.0,WNW,13.8,18.4,0.01,,Overcast,300,2014-03-01 09:55:00
2:15 AM,37.4,30.2,75,29.46,10.0,WNW,16.1,-,0.01,,Overcast,290,2014-03-01 10:15:00
2:35 AM,37.4,28.4,70,29.47,9.0,WNW,17.3,-,0.02,,Overcast,290,2014-03-01 10:35:00
2:55 AM,37.4,28.4,70,29.47,10.0,WNW,15.0,-,0.03,,Overcast,290,2014-03-01 10:55:00
3:15 AM,37.4,28.4,70,29.47,10.0,West,16.1,20.7,0.01,,Overcast,280,2014-03-01 11:15:00
3:35 AM,37.4,28.4,70,29.48,10.0,WNW,16.1,-,0.01,,Overcast,290,2014-03-01 11:35:00
3:55 AM,37.4,28.4,70,29.48,10.0,WNW,15.0,20.7,0.01,,Overcast,300,2014-03-01 11:55:00
4:15 AM,37.4,28.4,70,29.48,10.0,WNW,19.6,24.2,0.01,,Overcast,300,2014-03-01 12:15:00
4:35 AM,37.4,28.4,70,29.49,10.0,WNW,16.1,21.9,0.01,,Overcast,300,2014-03-01 12:35:00
4:55 AM,35.6,26.6,70,29.50,10.0,NW,17.3,-,0.01,,Overcast,310,2014-03-01 12:55:00
5:15 AM,35.6,26.6,70,29.51,10.0,WNW,16.1,-,N/A,,Overcast,300,2014-03-01 13:15:00
5:35 AM,35.6,26.6,70,29.52,10.0,WNW,18.4,-,N/A,,Overcast,290,2014-03-01 13:35:00
5:55 AM,33.8,24.8,70,29.53,10.0,WNW,23.0,28.8,N/A,,Overcast,290,2014-03-01 13:55:00
6:15 AM,33.8,23.0,65,29.54,10.0,WNW,21.9,-,N/A,,Overcast,300,2014-03-01 14:15:00
6:35 AM,32.0,23.0,69,29.55,10.0,NW,20.7,26.5,N/A,,Overcast,320,2014-03-01 14:35:00
6:55 AM,32.0,21.2,64,29.57,10.0,NW,19.6,-,N/A,,Overcast,310,2014-03-01 14:55:00
7:15 AM,32.0,21.2,64,29.58,10.0,NW,23.0,-,N/A,,Overcast,310,2014-03-01 15:15:00
7:35 AM,30.2,21.2,69,29.60,7.0,NW,20.7,-,N/A,,Overcast,320,2014-03-01 15:35:00
7:55 AM,30.2,21.2,69,29.61,10.0,NW,19.6,-,N/A,,Overcast,320,2014-03-01 15:55:00
8:15 AM,30.2,19.4,64,29.62,4.0,NW,19.6,26.5,N/A,,Overcast,310,2014-03-01 16:15:00
8:35 AM,30.2,21.2,69,29.64,10.0,NW,19.6,-,N/A,,Overcast,310,2014-03-01 16:35:00
8:55 AM,30.2,21.2,69,29.64,10.0,NW,17.3,-,N/A,,Overcast,310,2014-03-01 16:55:00
9:15 AM,30.2,19.4,64,29.65,10.0,NW,16.1,23.0,N/A,,Overcast,310,2014-03-01 17:15:00
9:35 AM,30.2,19.4,64,29.66,10.0,NW,17.3,-,N/A,,Overcast,310,2014-03-01 17:35:00
9:55 AM,30.2,19.4,64,29.67,10.0,NW,19.6,24.2,N/A,,Overcast,310,2014-03-01 17:55:00
10:15 AM,32.0,21.2,64,29.68,10.0,NW,18.4,-,N/A,,Overcast,310,2014-03-01 18:15:00
10:35 AM,33.8,21.2,60,29.69,10.0,NW,17.3,-,N/A,,Overcast,320,2014-03-01 18:35:00
10:55 AM,32.0,21.2,64,29.70,10.0,NW,20.7,-,N/A,,Overcast,310,2014-03-01 18:55:00
11:15 AM,32.0,21.2,64,29.71,10.0,NW,18.4,24.2,N/A,,Overcast,320,2014-03-01 19:15:00
11:35 AM,32.0,21.2,64,29.71,10.0,NW,17.3,23.0,N/A,,Overcast,320,2014-03-01 19:35:00
11:55 AM,33.8,21.2,60,29.71,10.0,NW,16.1,-,N/A,,Overcast,320,2014-03-01 19:55:00
12:15 PM,33.8,21.2,60,29.71,10.0,NW,15.0,-,N/A,,Overcast,310,2014-03-01 20:15:00
12:35 PM,35.6,23.0,60,29.71,10.0,NW,15.0,21.9,N/A,,Overcast,310,2014-03-01 20:35:00
12:55 PM,35.6,23.0,60,29.70,10.0,WNW,15.0,-,N/A,,Overcast,300,2014-03-01 20:55:00
1:15 PM,35.6,23.0,60,29.70,10.0,NW,13.8,-,N/A,,Overcast,320,2014-03-01 21:15:00
1:35 PM,37.4,24.8,60,29.70,10.0,NW,15.0,-,N/A,,Overcast,320,2014-03-01 21:35:00
1:55 PM,37.4,24.8,60,29.70,10.0,NW,15.0,-,N/A,,Overcast,310,2014-03-01 21:55:00
2:15 PM,37.4,23.0,56,29.70,10.0,NW,18.4,23.0,N/A,,Overcast,310,2014-03-01 22:15:00
2:35 PM,37.4,23.0,56,29.71,10.0,NW,15.0,-,N/A,,Overcast,310,2014-03-01 22:35:00
2:55 PM,35.6,23.0,60,29.71,10.0,NW,13.8,-,N/A,,Overcast,320,2014-03-01 22:55:00
3:15 PM,35.6,23.0,60,29.71,10.0,NW,11.5,-,N/A,,Overcast,320,2014-03-01 23:15:00
3:35 PM,35.6,23.0,60,29.71,10.0,NW,10.4,-,N/A,,Overcast,310,2014-03-01 23:35:00
3:55 PM,35.6,24.8,65,29.72,10.0,WNW,6.9,-,N/A,,Overcast,290,2014-03-01 23:55:00
4:15 PM,37.4,24.8,60,29.72,10.0,West,5.8,-,N/A,,Overcast,280,2014-03-02 00:15:00
4:35 PM,35.6,24.8,65,29.72,10.0,SSE,6.9,-,N/A,,Overcast,150,2014-03-02 00:35:00
4:55 PM,35.6,24.8,65,29.73,2.5,ESE,4.6,-,N/A,,Overcast,120,2014-03-02 00:55:00
5:15 PM,35.6,24.8,65,29.73,1.5,ESE,3.5,-,N/A,,Overcast,120,2014-03-02 01:15:00
5:35 PM,33.8,26.6,75,29.74,7.0,Calm,Calm,-,N/A,,Overcast,0,2014-03-02 01:35:00
5:55 PM,33.8,26.6,75,29.74,4.0,Calm,Calm,-,N/A,,Mostly Cloudy,0,2014-03-02 01:55:00
6:15 PM,33.8,26.6,75,29.74,3.0,Calm,Calm,-,N/A,,Overcast,0,2014-03-02 02:15:00
6:35 PM,33.8,26.6,75,29.75,9.0,Calm,Calm,-,N/A,,Overcast,0,2014-03-02 02:35:00
6:55 PM,33.8,26.6,75,29.75,5.0,Calm,Calm,-,N/A,,Overcast,0,2014-03-02 02:55:00
7:15 PM,33.8,26.6,75,29.75,5.0,Calm,Calm,-,N/A,,Overcast,0,2014-03-02 03:15:00
7:35 PM,33.8,26.6,75,29.75,7.0,Calm,Calm,-,N/A,,Overcast,0,2014-03-02 03:35:00
7:55 PM,33.8,26.6,75,29.75,7.0,Calm,Calm,-,N/A,,Overcast,0,2014-03-02 03:55:00
8:15 PM,33.8,26.6,75,29.75,10.0,Calm,Calm,-,N/A,,Overcast,0,2014-03-02 04:15:00
8:35 PM,33.8,26.6,75,29.75,10.0,Calm,Calm,-,N/A,,Overcast,0,2014-03-02 04:35:00
8:55 PM,33.8,26.6,75,29.75,10.0,Calm,Calm,-,N/A,,Overcast,0,2014-03-02 04:55:00
9:15 PM,33.8,26.6,75,29.76,8.0,Calm,Calm,-,N/A,,Overcast,0,2014-03-02 05:15:00
9:35 PM,33.8,26.6,75,29.76,10.0,Calm,Calm,-,0.01,,Overcast,0,2014-03-02 05:35:00
9:55 PM,33.8,26.6,75,29.76,9.0,Calm,Calm,-,0.01,,Overcast,0,2014-03-02 05:55:00
10:15 PM,33.8,26.6,75,29.75,5.0,Calm,Calm,-,N/A,,Overcast,0,2014-03-02 06:15:00
10:35 PM,33.8,28.4,81,29.75,8.0,Calm,Calm,-,N/A,,Overcast,0,2014-03-02 06:35:00
10:55 PM,33.8,26.6,75,29.75,7.0,NNW,3.5,-,N/A,,Overcast,340,2014-03-02 06:55:00
11:15 PM,33.8,26.6,75,29.75,4.0,Calm,Calm,-,N/A,,Mostly Cloudy,0,2014-03-02 07:15:00
11:35 PM,33.8,26.6,75,29.75,5.0,Calm,Calm,-,N/A,,Overcast,0,2014-03-02 07:35:00
11:55 PM,33.8,28.4,81,29.76,4.0,Calm,Calm,-,0.01,,Overcast,0,2014-03-02 07:55:00